Tracking 25710 objects as of 6-Jul-2022
HD Live streaming from Space Station
objects crossing your sky now

COSMOS 1181

Track COSMOS 1181 now!
10-day predictions
COSMOS 1181 is classified as:


NORAD ID: 11803
Int'l Code: 1980-039A
Perigee: 976.9 km
Apogee: 1,007.8 km
Inclination: 82.9 °
Period: 104.8 minutes
Semi major axis: 7363 km
RCS: 3.1344 m2 (large)
Launch date: May 20, 1980
Source: Commonwealth of Independent States (former USSR) (CIS)
Launch site: PLESETSK MISSILE AND SPACE COMPLEX (PKMTR)
aabbcc
Your satellite tracking list
Your tracking list is empty




NASA's NSSDC Master Catalog

Two Line Element Set (TLE):
1 11803U 80039A   22187.55047718  .00000032  00000-0  18199-4 0  9997
2 11803  82.9413 202.1218 0021025 297.1604 178.5797 13.74012466111974
Source of the keplerian elements: AFSPC